Location: Newark
(41.9364°N, 2.8061°E)
Time: 08:49:24
(UTC+00:00)

A-11 Canister half - Pass Details

Date: 20 February 2020
Orbit: 1516 x 1683 km, 47.2° (Epoch: 07 April)

Event Time Altitude Azimuth Distance (km) Brightness Sun altitude
Rises 22:45:57 0° 297° (WNW) 4,783 12.0 -54.7°
Reaches altitude 10° 22:49:11 10° 292° (WNW) 3,773 11.3 -55.0°
Enters shadow 22:51:10 18° 288° (WNW) 3,182 10.8 -55.2°
